Home   Weather   Wroclaw   Past weeks

Flag for Poland Past Weather in Wroclaw, Poland — Yesterday and Last 2 Weeks

Now
52 °F

Passing clouds.


Feels Like: 48 °F
Forecast: 34 / 57 °F
Wind: 12 mph from West

Location: Wroclaw Ii

Current Time: Apr 29, 2017 at 3:41:03 pm

Latest Report: Apr 29, 2017 at 3:00 pm


Visibility: N/A

Pressure: 30.01 "Hg

Humidity: 58%

Dew Point: 37 °F

Location of WroclawLocation

Past Weather in Wroclaw — Graph

°F

Wroclaw Temperature Yesterday

Maximum temperature yesterday: 43 °F (at 1:30 pm)
Minimum temperature yesterday: 37 °F (at 6:30 am)
Average temperature yesterday: 41 °F

High & Low Weather Summary for the Past Weeks

 TemperatureHumidityPressure
High64 °F (Apr 25, 1:30 pm)100% (Apr 16, 10:00 pm)30.48 "Hg (Apr 16, 10:00 pm)
Low30 °F (Apr 19, 6:30 am)34% (Apr 25, 1:30 pm)29.62 "Hg (Apr 25, 9:00 am)
Average43 °F73%30.02 "Hg
* Reported Apr 14 2:00 pm — Apr 29 2:30 pm, Wroclaw, Weather by CustomWeather, © 2017

Note: Actual official high and low records may vary slightly from our data, if they occured in-between our weather recording intervals... More about our weather records

Advertising

Wroclaw Weather History for the Previous 24 Hours

Scroll right to see more
 ConditionsComfort  
Time TempWeatherWind HumidityBarometerVisibility
2:30 pm
Sat, Apr 29
52 °FScattered clouds.21 mph58%30.01 "HgN/A
2:00 pm54 °FPassing clouds.13 mph51%30.01 "HgN/A
1:30 pm54 °FPassing clouds.14 mph54%30.01 "HgN/A
1:00 pm54 °FPassing clouds.15 mph54%30.01 "HgN/A
12:30 pm54 °FPassing clouds.16 mph54%30.01 "HgN/A
12:00 pm52 °FScattered clouds.15 mph58%30.01 "HgN/A
11:30 am52 °FScattered clouds.16 mph62%30.01 "HgN/A
11:00 am52 °FScattered clouds.16 mph62%30.01 "HgN/A
10:30 am52 °FPassing clouds.12 mph67%30.01 "HgN/A
9:30 am48 °FSunny.12 mph71%29.98 "Hg10 mi
9:00 am46 °FSunny.9 mph76%29.98 "Hg10 mi
8:30 am45 °FSunny.7 mph81%29.98 "Hg10 mi
8:00 am41 °FSunny.7 mph93%29.98 "Hg10 mi
7:30 am39 °FClear.5 mph93%29.98 "Hg5 mi
7:00 am39 °FClear.7 mph93%29.98 "Hg4 mi
6:30 am37 °FFog.5 mph93%29.95 "Hg3 mi
6:00 am37 °FFog.8 mph93%29.95 "Hg3 mi
5:30 am37 °FFog.8 mph93%29.95 "Hg3 mi
5:00 am37 °FFog.8 mph93%29.95 "Hg3 mi
4:30 am39 °FPassing clouds.7 mph93%29.95 "Hg4 mi
4:00 am39 °FPassing clouds.7 mph93%29.92 "Hg4 mi
3:00 am41 °FLight rain. Fog.10 mph93%29.92 "Hg3 mi
2:30 am41 °FLight rain. Fog.10 mph93%29.92 "Hg3 mi
2:00 am41 °FLight rain. Passing clouds.13 mph93%29.92 "Hg3 mi
1:30 am41 °FLight rain. Fog.7 mph93%29.92 "Hg3 mi
1:00 am41 °FLight rain. Fog.7 mph93%29.92 "Hg3 mi
12:30 am41 °FLight rain. Passing clouds.9 mph93%29.92 "Hg4 mi
12:00 am41 °FLight rain. Passing clouds.13 mph93%29.89 "Hg4 mi
11:30 pm
Fri, Apr 28
41 °FLight rain. Fog.12 mph93%29.89 "Hg3 mi
11:00 pm41 °FLight rain. Fog.10 mph93%29.89 "Hg3 mi
10:30 pm41 °FLight rain. Fog.10 mph93%29.89 "Hg3 mi
10:00 pm41 °FLight rain. Fog.9 mph93%29.89 "Hg3 mi
9:30 pm41 °FLight rain. Fog.9 mph93%29.86 "Hg3 mi
9:00 pm41 °FLight rain. Fog.7 mph93%29.86 "Hg3 mi
8:30 pm41 °FLight rain. Fog.7 mph93%29.86 "Hg3 mi
8:00 pm41 °FLight rain. Partly sunny.9 mph93%29.86 "Hg5 mi
7:30 pm41 °FSprinkles. Partly sunny.8 mph93%29.86 "Hg4 mi
7:00 pm43 °FDrizzle. Partly sunny.9 mph87%29.86 "Hg4 mi
6:30 pm41 °FDrizzle. Partly sunny.10 mph93%29.86 "Hg4 mi
6:00 pm41 °FDrizzle. Fog.8 mph93%29.86 "Hg2 mi
5:30 pm43 °FLight rain. Broken clouds.8 mph87%29.86 "Hg5 mi
5:00 pm43 °FBroken clouds.9 mph87%29.86 "HgN/A
4:30 pm43 °FBroken clouds.8 mph87%29.86 "Hg6 mi
4:00 pm41 °FBroken clouds.12 mph87%29.86 "HgN/A
3:00 pm43 °FLight rain. Partly sunny.9 mph87%29.86 "Hg5 mi
Weather by CustomWeather, © 2017

See weather overviewHow to use our weather pages